Eddersheim, Germany

2:20 AM CEST on July 28, 2017 (GMT +0200)
Eddersheim

Weather History for 10637 - December, 2013

Change the Weather History Date:

Tuesday, December 3, 2013

  Actual Average Record
Temperature  
Mean Temperature 36 °F -  
Max Temperature 43 °F 39 °F - ()
Min Temperature 30 °F 30 °F - ()
Degree Days  
Heating Degree Days 28    
Moisture  
Dew Point 31 °F    
Average Humidity 87    
Maximum Humidity 100    
Minimum Humidity 53    
Precipitation  
Precipitation 0.00 in - - ()
Sea Level Pressure  
Sea Level Pressure 30.42 in    
Wind  
Wind Speed 5 mph ()    
Max Wind Speed 10 mph    
Max Gust Speed -    
Visibility 8.4 miles    
Events Fog , Rain    
T = Trace of Precipitation, MM = Missing Value Source: Averaged Metar Reports

Daily Weather History Graph

Daily Weather History Graph

Search for Another Location

Airport or City:

Trip Planner

Search our weather history database for the weather conditions in past years. The results will help you decide how hot, cold, wet, or windy it might be!

Date:

Astronomy

Dec. 03, 2013 Rise Set
Actual Time 8:05 AM CET 4:25 PM CET
Civil Twilight 7:27 AM CET 5:03 PM CET
Nautical Twilight 6:46 AM CET 5:44 PM CET
Astronomical Twilight 6:07 AM CET 6:23 PM CET
Moon 8:14 AM CET (12/3) 5:14 PM CET (12/3)
Length of Visible Light 9h 35m
Length of Day
8h 20m
New Moon, 0% of the Moon is Illuminated
Dec 3
New Moon
Dec 9
First Quarter
Dec 17
Full
Dec 25
Last Quarter
Jan 1
New

Hourly Weather History & Observations

Time (CET) Temp. Windchill Dew Point Humidity Pressure Visibility Wind Dir Wind Speed Gust Speed Precip Events Conditions
12:00 AM 32 °F - 30 °F 89% 30.50 in 19 mi NNE 4.5 mph - -   Clear
12:20 AM 33.8 °F 26.4 °F 32.0 °F 93% 30.48 in - NNE 9.2 mph - N/A   Clear
12:50 AM 33.8 °F 26.4 °F 32.0 °F 93% 30.48 in - NNE 9.2 mph - N/A   Clear
1:00 AM 33 °F - 31 °F 87% 30.50 in 19 mi NNE 4.5 mph - -   Clear
1:20 AM 32.0 °F 24.2 °F 32.0 °F 100% 30.45 in - NNE 9.2 mph - N/A   Clear
1:50 AM 32.0 °F 24.8 °F 30.2 °F 93% 30.45 in - NNE 8.1 mph - N/A   Clear
2:00 AM 32 °F - 30 °F 88% 30.49 in 16 mi NNE 4.5 mph - -   Clear
2:20 AM 32.0 °F 25.6 °F 30.2 °F 93% 30.45 in - NNE 6.9 mph - N/A   Clear
2:50 AM 32.0 °F 23.6 °F 30.2 °F 93% 30.45 in - NNE 10.4 mph - N/A   Clear
3:00 AM 32 °F - 30 °F 89% 30.49 in 16 mi NE 4.5 mph - -   Clear
3:20 AM 32.0 °F 26.4 °F 30.2 °F 93% 30.45 in - ENE 5.8 mph - N/A   Clear
3:50 AM 30.2 °F 24.3 °F 30.2 °F 100% 30.45 in - East 5.8 mph - N/A   Clear
4:20 AM 30.2 °F 23.4 °F 30.2 °F 100% 30.42 in - East 6.9 mph - N/A   Clear
4:50 AM 30.2 °F 24.3 °F 30.2 °F 100% 30.42 in 6.2 mi East 5.8 mph - N/A Fog Patches of Fog
5:00 AM 30 °F - 29 °F 94% 30.47 in 12 mi NE 4.5 mph - -   Clear
5:20 AM 30.2 °F 23.4 °F 30.2 °F 100% 30.42 in - ENE 6.9 mph - N/A   Clear
5:50 AM 30.2 °F 26.7 °F 30.2 °F 100% 30.42 in - East 3.5 mph - N/A   Clear
6:00 AM 31 °F - 29 °F 88% 30.46 in 12 mi NE 4.5 mph - -   Clear
6:20 AM 32.0 °F 28.7 °F 32.0 °F 100% 30.42 in 6.2 mi East 3.5 mph - N/A Fog Patches of Fog
6:50 AM 32.0 °F 28.7 °F 30.2 °F 93% 30.42 in - NE 3.5 mph - N/A   Clear
7:00 AM 31 °F - 29 °F 89% 30.46 in 12 mi NE 4.5 mph - -   Clear
7:20 AM 30.2 °F 26.7 °F 30.2 °F 100% 30.42 in - NE 3.5 mph - N/A   Clear
7:50 AM 32.0 °F 26.4 °F 30.2 °F 93% 30.42 in - East 5.8 mph - N/A   Clear
8:00 AM 31 °F - 29 °F 90% 30.46 in 12 mi NNE 4.5 mph - -   Clear
8:20 AM 30.2 °F 25.4 °F 30.2 °F 100% 30.45 in - East 4.6 mph - N/A   Clear
8:50 AM 30.2 °F 23.4 °F 30.2 °F 100% 30.45 in - East 6.9 mph - N/A   Clear
9:00 AM 31 °F - 29 °F 88% 30.47 in 11 mi ENE 4.5 mph - -   Clear
9:20 AM 32.0 °F 25.6 °F 30.2 °F 93% 30.45 in - East 6.9 mph - N/A   Clear
9:50 AM 33.8 °F 28.6 °F 32.0 °F 93% 30.45 in - ENE 5.8 mph - N/A   Clear
10:20 AM 35.6 °F 29.9 °F 32.0 °F 87% 30.42 in - ENE 6.9 mph - N/A   Clear
10:50 AM 37.4 °F 32.8 °F 32.0 °F 81% 30.45 in - ENE 5.8 mph - N/A   Clear
11:00 AM 37 °F - 32 °F 74% 30.46 in 14 mi ENE 4.5 mph - -   Clear
11:20 AM 37.4 °F 32.8 °F 32.0 °F 81% 30.45 in - ENE 5.8 mph - N/A   Clear
11:50 AM 39.2 °F 35.0 °F 32.0 °F 75% 30.42 in - East 5.8 mph - N/A   Clear
12:00 PM 39 °F - 31 °F 63% 30.45 in 14 mi East 4.5 mph - -   Clear
12:20 PM 41.0 °F 39.0 °F 32.0 °F 70% 30.42 in - ESE 3.5 mph - N/A   Clear
12:50 PM 42.8 °F - 32.0 °F 66% 30.42 in - Variable 2.3 mph - N/A   Clear
1:00 PM 42 °F - 32 °F 57% 30.43 in 14 mi SE 2.2 mph - -   Clear
1:20 PM 42.8 °F 41.1 °F 30.2 °F 61% 30.39 in - Variable 3.5 mph - N/A   Clear
1:50 PM 42.8 °F - 30.2 °F 61% 30.39 in - SW 2.3 mph - N/A   Clear
2:00 PM 43 °F - 31 °F 53% 30.41 in 14 mi SW 2.2 mph - -   Clear
2:20 PM 41.0 °F 39.0 °F 30.2 °F 65% 30.39 in - West 3.5 mph - N/A   Clear
2:50 PM 41.0 °F 37.1 °F 32.0 °F 70% 30.39 in - SW 5.8 mph - N/A   Clear
3:00 PM 41 °F - 31 °F 58% 30.40 in 16 mi SW 4.5 mph - -   Clear
3:20 PM 41.0 °F 36.4 °F 32.0 °F 70% 30.39 in - WSW 6.9 mph - N/A   Clear
3:50 PM 39.2 °F 35.0 °F 32.0 °F 75% 30.39 in - SW 5.8 mph - N/A   Clear
4:20 PM 39.2 °F 35.9 °F 32.0 °F 75% 30.39 in - SSW 4.6 mph - N/A   Clear
4:50 PM 37.4 °F 33.8 °F 32.0 °F 81% 30.39 in - SSW 4.6 mph - N/A   Clear
5:00 PM 38 °F - 31 °F 68% 30.40 in 16 mi SSW 4.5 mph - -   Clear
5:20 PM 37.4 °F 34.9 °F 32.0 °F 81% 30.36 in - SSW 3.5 mph - N/A   Clear
5:50 PM 35.6 °F - 32.0 °F 87% 30.36 in - South 2.3 mph - N/A   Clear
6:00 PM 36 °F - 31 °F 75% 30.40 in 16 mi South 2.2 mph - -   Clear
6:20 PM 35.6 °F 31.7 °F 32.0 °F 87% 30.36 in - SSW 4.6 mph - N/A   Clear
6:50 PM 33.8 °F 28.6 °F 32.0 °F 93% 30.39 in 6.2 mi South 5.8 mph - N/A   Mostly Cloudy
7:00 PM 34 °F - 31 °F 82% 30.40 in 7 mi South 6.7 mph - -   Scattered Clouds
7:20 PM 32.0 °F 24.2 °F 32.0 °F 100% 30.39 in 0.4 mi South 9.2 mph - N/A Fog Light Freezing Fog
7:50 PM 32.0 °F 24.2 °F 32.0 °F 100% 30.39 in 0.4 mi SSW 9.2 mph - N/A Fog Light Freezing Fog
8:00 PM 31 °F - 31 °F 100% 30.42 in 0 mi SSW 8.9 mph - - Fog Heavy Fog
8:20 PM 32.0 °F 25.6 °F 32.0 °F 100% 30.39 in 2.5 mi SSW 6.9 mph - N/A   Mostly Cloudy
8:50 PM 32.0 °F 25.6 °F 32.0 °F 100% 30.39 in 2.5 mi SSW 6.9 mph - N/A   Overcast
9:00 PM 33 °F - 32 °F 95% 30.41 in 2 mi SSW 6.7 mph - - Fog Light Fog
9:20 PM 32.0 °F 24.2 °F 32.0 °F 100% 30.39 in 0.7 mi SSW 9.2 mph - N/A   Overcast
9:50 PM 32.0 °F 24.8 °F 32.0 °F 100% 30.36 in 0.9 mi SSW 8.1 mph - N/A   Mostly Cloudy
10:20 PM 32.0 °F 24.8 °F 32.0 °F 100% 30.36 in 1.6 mi SSW 8.1 mph - N/A   Drizzle
10:50 PM 32.0 °F 26.4 °F 32.0 °F 100% 30.36 in 1.6 mi South 5.8 mph - N/A   Drizzle
11:00 PM 32 °F - 32 °F 98% 30.40 in 2 mi South 6.7 mph - - Rain Light Drizzle
11:20 PM 32.0 °F 25.6 °F 32.0 °F 100% 30.36 in 2.2 mi South 6.9 mph - N/A   Drizzle
11:50 PM 32.0 °F 26.4 °F 32.0 °F 100% 30.36 in 2.2 mi SSW 5.8 mph - N/A   Drizzle